User: anonymous   Login
Location: B�di�
(14.6834°N, 3.1047°W)
Time: 20:23:03
(UTC+00:00)
Language:

OAO 3 Rocket - Orbit

View from above orbital plane
View from above orbital plane
View from above satellite
View from above satellite

Ground track
Ground track

The orbit data is extracted from the following two-line orbital elements,

1  6155U 72065B   20088.13528997 +.00000093 +00000-0 +18144-4 0  9993
2  6155 035.0052 353.3621 0038326 207.0228 152.8475 14.71573320520631
Epoch (UTC): 28 March 2020 03:14:49
Eccentricity: 0.0038326
inclination: 35.0052°
perigee height: 629 km
apogee height: 683 km
right ascension of ascending node: 353.3621°
argument of perigee: 207.0228°
revolutions per day: 14.71573320
mean anomaly at epoch: 152.8475°
orbit number at epoch: 52063

The dashed part of the orbit path shows where the satellite is in the earth's shadow,  

DLR